Погода в Киеве

Погода в Киеве : погода сейчас, прогноз погоды и архив. Всё, что Вы хотите узнать о погоде в Киеве!

Хотите узнать прогноз погоды в Киеве? Тогда Вам сюда: Погода в Киеве

Поиск расширенной информации на нашем сайте:

Другие новости

Новости СМИ2

Главная страница сайта

Новости сайта

02.10.2013

Напоминаем, что на нашем новом сайте вы можете получить высокодетализированные прогнозы погоды по пунктам России, СНГ и мира (включающие важные для авиации метеовеличины, такие как направление и скорость ветра, видимость, явления погоды, количество и форма облачности, нижняя и верхняя граница облачности), а также ознакомиться с разнообразными материалами по авиационной метеорологии и подборкой полезных ссылок на эту тему.

Сайт Метеоцентр.Азия посвящён разработке технологий оптимизации авиаметеорологического обслуживания, включая проектирование и перспективное создание нескольких автоматизированных авиаметеорологических систем:
- система выпуска высокодетальных прогностических карт явлений погоды для нижнего воздушного пространства по России и ближнему зарубежью;
- система верификации прогнозов TAF (выпускаемых синоптиками официальных АМСГ РФ и ближнего зарубежья) и AUTOTAF (выпускаемых сайтом Метеоцентр.Азия) - выявление ошибок, онлайн-сопоставление с фактической погодой METAR, автоматическое внесение коррективов в прогнозы при резком отклонении фактической погоды от прогноза, подсчёт оправдываемости прогнозов по элементам и в целом;
- система обработки, анализа и отображения авиаметеорологической информации для применения провайдерами метеорологической информации.

Рекомендуем: ремонт квартир цены

Погода в Киеве - сегодня

Время (UTC), дата Ветер
(°,м/с) 
Видим.   Явления Облачность Т
(°С)
Тd
(°С)
f(%) Тe
(°С)
Pmin
(гПа)
dP
(гПа)
Po
(мм)
O2
(г/м3)
Тmin Tmax R s Состояние
почвы
09 23.05.17 270 (З) 20000 м    9/4 1000 м средняя, верхняя 
[Cu hum|Ac trans|Cc]
+22.7 +2.9 27 +23  1015.8  -0.3  747  278           
12 23.05.17 280 (З) 20000 м    9/8 1000 м верхняя 
[Cu med, cong|Ci fib]
+24 +3.3 26 +24  1014.7  -1  747  276           
15 23.05.17 210 (ЮЗ) 20000 м    8/6 1000 м верхняя 
[Sc diur, vesp|Ci fib]
+24.7 +5.3 29 +25  1013.3  -1.3  746  275           
18 23.05.17 250 (З) 20000 м    8/4 1000 м средняя 
[Sc diur, vesp|Ac cuf]
+20.3 +7 42 +20  1014.1  0.5  746  279    +25.4       
21 23.05.17 290 (З) 20000 м    9/0 средняя, верхняя 
[Ac trans|Cs]
+20 +7.1 43 +20  1014.6  0.5  746  279           
00 24.05.17 260 (З) 20000 м    8/0 средняя 
[Ac trans]
+17.5 +7.2 51 +18  1014.3  -0.5  746  281           
03 24.05.17 260 (З) 20000 м    9/0 средняя, верхняя 
[Ac trans|Cc]
+15.5 +8 61 +16  1014.5  0.1  746  283           
06 24.05.17 010 (С) 20000 м    6/0 средняя, верхняя 
[Ac cast|Cc]
+20.6 +10.5 52 +23  1014.4  0.3  746  278  +15.3         
09 24.05.17 240 (ЮЗ) 20000 м    8/6 600 м верхняя 
[Cu med, cong|Ci fib]
+24.5 +7 33 +25  1013.9  -0.3  746  275           
12 24.05.17 230 (ЮЗ) 20000 м    9/4 600 м средняя 
[Cu med, cong|Ac cuf]
+23.8 +5.5 31 +24  1012.8  -1.1  745  275           
15 24.05.17 220 (ЮЗ) 20000 м    8/3 600 м средняя 
[Cu med, cong|Ac cuf]
+24.4 +6 31 +24  1011.7  -1.1  744  274           
18 24.05.17 220 (ЮЗ) 20000 м    4/0 средняя, верхняя 
[Ac cuf|Cs]
+21 +5.6 37 +21  1012.6  0.7  745  278    +26.1       
21 24.05.17 230 (ЮЗ) 20000 м    3/0 средняя 
[Ac lent]
+18.6 +5.3 42 +19  1013.4  0.6  745  280           
00 25.05.17 230 (ЮЗ) 20000 м    4/0 средняя 
[Ac lent]
+16.5 +6.1 50 +17  1014.1  0.6  746  282           
03 25.05.17 230 (ЮЗ) 20000 м    ясно 
+13.7 +6.4 61 +15  1014.3  746  285           
06 25.05.17 220 (ЮЗ) 20000 м    8/0 верхняя 
[Cc]
+17.6 +7.1 50 +18  1014.8  0.7  746  281  +13.6         
09 25.05.17 220 (ЮЗ) 20000 м    5/0 верхняя 
[Ci fib]
+21.3 +4 32 +21  1014.3  -0.2  746  278           
12 25.05.17 280 (З) 20000 м    8/3 600 м средняя, верхняя 
[Cu med, cong|Ac trans|Ci fib]
+22.4 +4.6 31 +22  1013.7  -0.5  746  277           
15 25.05.17 250 (З) 20000 м    8/8 600 м кучево-дожд. 
[Cb cap]
+21.3 +7.2 40 +21  1013.2  -0.6  745  277           
18 25.05.17 330 (СЗ) 20000 м    8/8 600 м кучево-дожд., средняя 
[Cb cap|Ac trans]
+18.4 +12.5 68 +24  1013.9  0.5  746  279    +23.1       
21 25.05.17 290 (З) 20000 м    5/0 средняя 
[Ac trans]
+16.1 +12.5 79 +21  1014.6  0.6  746  281           
00 26.05.17 330 (СЗ) 20000 м    8/0 средняя 
[Ac trans]
+14.2 +12.4 89 +20  1014.2  -0.5  746  283           
06 26.05.17 300 (СЗ) 10 км  слаб. дождь{ливн. осадки}  10/10 240 м 
[Frnb|Ns]
+15.1 +13.9 93 +23  1014.3  746  282  +13.6       
09 26.05.17 360 (С) 4000 м  дождь  10/10 240 м 
[Frnb|Ns]
+13.9 +12.6 92 +19  1014.7  0.3  746  284           
12 26.05.17 040 (СВ) 10 км  в посл. час ливневой дождь  9/3 600 м кучево-дожд., средняя, верхняя 
[Cb cap|As trans|Cs]
+15.8 +12 78 +21  1014.3  -0.2  746  282         
Время (UTC), дата Ветер
(°,м/с) 
Видим.   Явления Облачность Т
(°С)
Тd
(°С)
f(%) Тe
(°С)
Pmin
(гПа)
dP
(гПа)
Po
(мм)
O2
(г/м3)
Тmin Tmax R s Состояние
почвы

Для получения пояснительной информации подведите курсор к названию столбца.

ПОГОДА в Киеве - архив

Всё, что Вы хотите узнать о погоде в Киеве - удобно и подробно!

Выберите нужную дату (начиная с 1 января 2015* года) и нажмите кнопку "Найти".
Будут отображены архивные сводки погоды по пункту Киев, начиная с указанной даты.


Отображать данные в формате CSV (для использования в таблицах Excel)


Внимание! Наш архив погоды предназначен исключительно для личного некоммерческого использования в познавательных целях. Если Вам необходимы официальные справки о состоянии погоды (для производственных, юридических, коммерческих и т.п. целей), обращайтесь в органы Росгидромета.

*Примечание: данная дата относится к архиву по метеостанциям СССР (Россия, СНГ, Балтия).
Архив по метеостанциям Зарубежной Европы и Азии (кроме Китая) хранится 10 дней, по другим регионам земного шара (Китай, Африка, Америка, Австралия, Океания) - 1 день.

Киев - район местоположения метеостанции


Название, широта, долгота, высота метеостанции:
Киев (город) 50.4°ш. 30.6°д. 167 м над ур. моря [Украина]

Дополнительная информация

В oтличие oт бoльшинства пoгoдных сайтoв мы публикуем пoдрoбную метеoинфoрмацию в детальнoм прoфессиoнальнoм фoрмате.

Характеристики температуры и влажнoсти вoздуха измеряются на высoте 2 м в тени вдали oт зданий и деревьев.
Скoрoсть ветра измеряется на высoте 10 м (на урoвне рoста челoвека скoрoсть ветра ниже в 1.5-2 раза). Если метеoстанция нахoдится в гoрoде или в лесу, тo скoрoсть ветра занижена на 2-4 м/с пo сравнению с oткрытым местoм. Скoрoсть ветра над акватoриями крупных рек и oзёр, а также на вершинах хoлмoв на 2-5 м/с выше, чем в oбычных услoвиях.
Атмoсфернoе давление в разных тoчках местнoсти мoжет значительнo oтличаться oт давления на метеoстанции, в зависимoсти oт услoвий рельефа (при пoдъёме на 10 м давление пoнижается примернo на 1 мм рт.ст.).